map of YBB home
YBB - Airport
Location
City:  Kugaaruk, Kitikmeot, Nunavut, Canada
Near (Alt.):Pelly Bay
Name:Kugaaruk Airport
ICAO:CYBB
IATA:YBB

Details
Type:Airport (Airfield)
Use:Public/Civil
Latitude:6832'09"N (68.535833)
Longitude:8948'19"W (-89.805277)
Elevation:51 ft (16 m)
Variation:17.11W (WMM2015 magnetic declination)
0.38 annual change
Runways:1
Longest:5000 ft (1524 m)

Time
Time Zone:UTC-6 (DST-5)
Local Time:

Weather
METAR:CYBB 220000Z 25007KT 15SM FEW030 M33/M37 A3036 RMK SC1 -30.7/-34.9/0.0/24/SNW CVR/MUCH LOOSE SLP287
TAF:CYBB 211838Z 2119/2124 25010KT P6SM FEW030
BECMG 2122/2124 22012KT
RMK NXT FCST WILL BE ISSUED AT 221445Z

Related Locations
Nearby:
Farthest:YWKS: 11859 mi / 19085 km
Wilkins Runway (Casey), Upper Peterson Glacier, AQ

Find:

   beyond  
but within

Other Information
Maps:
NOTAMs:
Links:
Sources:

  
flag of Canada
flag of Nunavut
  

Airport Diagram

Airport diagram for YBB

Airport diagram PDF

Sectional Chart

Flight Planning
at skyvector.com

Satellite Image

Google Maps Satellite view

 

Copyright © 2004-2017 Karl L. Swartz. All rights reserved.
The Great Circle Mapper name and logo are trademarks of the Great Circle Mapper.
All other trademarks mentioned herein belong to their respective owners.
Please see credits for attibutions and further copyright information.

  Follow gcmap on Facebook Follow gcmap on Twitter Follow gcmap on Google+ GCmap on LinkedIn

hCard Microformat

Geo Microformat